Location: Gleizolles
(44.4833°N, 6.7667°E)
Time: 22:22:24
(UTC+00:00)

Tiros 1 despin weight - Pass Details

Date: 25 June 2024
Orbit: 576 x 620 km, 48.2° (Epoch: 19 July)

Event Time Altitude Azimuth Distance (km) Brightness Sun altitude
Rises 13:27:34 0° 279° (W) 2,894 ? 58.9°
Reaches altitude 10° 13:29:56 10° 284° (WNW) 1,989 ? 58.6°
Maximum altitude 13:34:25 53° 2° (N) 767 ? 57.9°
Drops below altitude 10° 13:38:54 10° 80° (E) 1,982 ? 57.2°
Sets 13:41:15 0° 85° (E) 2,882 ? 56.8°
